Weather History for KIDA - September, 2013

Change the Weather History Date:

Saturday, September 21, 2013

  Actual Average Record
Temperature  
Mean Temperature 61 °F 55 °F  
Max Temperature 82 °F 72 °F 86 °F (1966)
Min Temperature 40 °F 39 °F 22 °F (1983)
Degree Days  
Heating Degree Days 4 10  
Month to date heating degree days 47 133  
Since 1 July heating degree days 47 198  
Cooling Degree Days 0 0  
Month to date cooling degree days 50 10  
Year to date cooling degree days 510 262  
Growing Degree Days 12 (Base 50)    
Moisture  
Dew Point 35 °F    
Average Humidity 45    
Maximum Humidity 76    
Minimum Humidity 13    
Precipitation  
Precipitation 0.00 in 0.03 in 1.03 in (2006)
Month to date precipitation 2.05 0.57  
Year to date precipitation 4.75 7.55  
Snow  
Snow 0.00 in - - ()
Month to date snowfall 0.0  
Snow Depth 0.00 in    
Sea Level Pressure  
Sea Level Pressure 29.68 in    
Wind  
Wind Speed 10 mph (SSW)    
Max Wind Speed 29 mph    
Max Gust Speed 38 mph    
Visibility 10 miles    
Events      
T = Trace of Precipitation, MM = Missing Value Source: NWS Daily Summary

Daily Weather History Graph

Daily Weather History Graph

Search for Another Location

Airport or City:

Trip Planner

Search our weather history database for the weather conditions in past years. The results will help you decide how hot, cold, wet, or windy it might be!

Date:

Astronomy

Sep. 21, 2013 Rise Set
Actual Time 7:14 AM MDT 7:26 PM MDT
Civil Twilight 6:46 AM MDT 7:55 PM MDT
Nautical Twilight 6:12 AM MDT 8:28 PM MDT
Astronomical Twilight 5:38 AM MDT 9:03 PM MDT
Moon 8:33 PM MDT (9/21) 9:42 AM MDT (9/21)
Length of Visible Light 13h 09m
Length of Day
12h 12m
Waning Gibbous, 94% of the Moon is Illuminated
Sep 21
Waning Gibbous
Sep 26
Last Quarter
Oct 4
New
Oct 11
First Quarter
Oct 18
Full

Hourly Weather History & Observations

Time (MDT) Temp. Windchill Dew Point Humidity Pressure Visibility Wind Dir Wind Speed Gust Speed Precip Events Conditions
12:53 AM 48.0 °F - 37.0 °F 66% 29.80 in 10.0 mi NNW 5.8 mph - N/A   Clear
1:53 AM 46.9 °F - 37.9 °F 71% 29.79 in 10.0 mi North 4.6 mph - N/A   Clear
2:53 AM 44.1 °F 40.8 °F 37.9 °F 79% 29.78 in 10.0 mi NNW 5.8 mph - N/A   Clear
3:53 AM 45.0 °F 43.5 °F 37.0 °F 74% 29.77 in 10.0 mi North 3.5 mph - N/A   Clear
4:53 AM 44.1 °F - 37.0 °F 76% 29.76 in 10.0 mi Calm Calm - N/A   Clear
5:53 AM 42.1 °F 40.2 °F 36.0 °F 79% 29.76 in 10.0 mi NNW 3.5 mph - N/A   Clear
6:53 AM 42.1 °F 38.4 °F 36.0 °F 79% 29.78 in 10.0 mi North 5.8 mph - N/A   Clear
7:53 AM 46.9 °F - 39.0 °F 74% 29.79 in 10.0 mi SE 4.6 mph - N/A   Clear
8:53 AM 61.0 °F - 39.0 °F 44% 29.78 in 10.0 mi South 6.9 mph - N/A   Clear
9:53 AM 68.0 °F - 37.9 °F 33% 29.77 in 10.0 mi South 9.2 mph - N/A   Clear
10:53 AM 73.0 °F - 37.0 °F 27% 29.75 in 10.0 mi SSW 12.7 mph - N/A   Clear
11:53 AM 75.0 °F - 34.0 °F 22% 29.74 in 10.0 mi SW 16.1 mph - N/A   Clear
12:53 PM 77.0 °F - 34.0 °F 21% 29.71 in 10.0 mi SW 18.4 mph 24.2 mph N/A   Clear
1:53 PM 80.1 °F - 33.1 °F 18% 29.68 in 10.0 mi SW 13.8 mph 25.3 mph N/A   Scattered Clouds
2:53 PM 82.0 °F - 26.1 °F 13% 29.64 in 10.0 mi SW 25.3 mph 33.4 mph N/A   Scattered Clouds
3:53 PM 81.0 °F - 28.9 °F 15% 29.61 in 10.0 mi SSW 20.7 mph 27.6 mph N/A   Scattered Clouds
4:53 PM 78.1 °F - 30.9 °F 18% 29.60 in 10.0 mi South 12.7 mph - N/A   Partly Cloudy
5:53 PM 75.9 °F - 34.0 °F 22% 29.59 in 10.0 mi SSW 11.5 mph - N/A   Scattered Clouds
6:53 PM 73.9 °F - 33.1 °F 22% 29.58 in 10.0 mi South 8.1 mph - N/A   Scattered Clouds
7:53 PM 68.0 °F - 33.1 °F 27% 29.57 in 10.0 mi SSW 4.6 mph - N/A   Clear
8:53 PM 69.1 °F - 32.0 °F 25% 29.52 in 10.0 mi ESE 3.5 mph - N/A   Clear
9:53 PM 64.9 °F - 35.1 °F 33% 29.50 in 10.0 mi ESE 3.5 mph - N/A   Clear
10:53 PM 66.9 °F - 30.9 °F 26% 29.47 in 10.0 mi SE 5.8 mph - N/A   Clear
11:53 PM 64.0 °F - 33.1 °F 31% 29.47 in 10.0 mi SW 5.8 mph - N/A   Clear